• In Spain
  • List of Countries
  • For 7 days
  • Water Temperature
  • Satellite Maps
  • Weather Map
  • Weather Widgets
  • user-avatar
    Login

    Hourly Weather Uige

    Today, 22 January, Monday

    Time Temperature Precipitation Wind Pressure Humidity
    00:00 +19°C° 0.3 mm 0 mps 691 mmHg 97%
    01:00 +19°C° 0 mm 0 mps 691 mmHg 98%
    02:00 +19°C° 0.5 mm 0 mps 690 mmHg 98%
    03:00 +18°C° 0.5 mm 0 mps 690 mmHg 98%
    04:00 +18°C° 0.5 mm 0 mps 690 mmHg 98%
    05:00 +21°C° 0 mm 1 mps 691 mmHg 98%
    06:00 +21°C° 0 mm 1 mps 691 mmHg 98%
    07:00 +21°C° 0 mm 1 mps 691 mmHg 97%
    08:00 +23°C° 0.1 mm 1 mps 691 mmHg 90%
    09:00 +25°C° 0.1 mm 1 mps 692 mmHg 84%
    10:00 +27°C° 0.1 mm 1 mps 692 mmHg 77%
    11:00 +27°C° 1.3 mm 1 mps 691 mmHg 79%
    12:00 +27°C° 1.3 mm 1 mps 691 mmHg 82%
    13:00 +27°C° 1.3 mm 1 mps 690 mmHg 84%
    14:00 +27°C° 2.4 mm 1 mps 690 mmHg 86%
    15:00 +26°C° 2.4 mm 1 mps 689 mmHg 88%
    16:00 +26°C° 2.4 mm 1 mps 689 mmHg 90%
    17:00 +25°C° 2.3 mm 1 mps 689 mmHg 92%
    18:00 +24°C° 2.3 mm 1 mps 689 mmHg 94%
    19:00 +22°C° 2.3 mm 1 mps 690 mmHg 96%
    20:00 +22°C° 2.1 mm 1 mps 690 mmHg 97%
    21:00 +22°C° 2.1 mm 1 mps 691 mmHg 97%
    22:00 +22°C° 2.1 mm 1 mps 691 mmHg 97%
    23:00 +22°C° 2 mm 1 mps 691 mmHg 98%

    Tomorrow, 23 January, Tuesday

    Time Temperature Precipitation Wind Pressure Humidity
    00:00 +22°C° 2 mm 1 mps 691 mmHg 98%
    01:00 +21°C° 2 mm 1 mps 691 mmHg 98%
    02:00 +21°C° 1.4 mm 1 mps 691 mmHg 98%
    03:00 +21°C° 1.4 mm 1 mps 690 mmHg 98%
    04:00 +21°C° 1.4 mm 1 mps 690 mmHg 98%
    05:00 +21°C° 0.9 mm 1 mps 690 mmHg 98%
    06:00 +20°C° 0.9 mm 1 mps 690 mmHg 98%
    07:00 +18°C° 0.9 mm 0 mps 691 mmHg 97%
    08:00 +19°C° 0.4 mm 0 mps 691 mmHg 96%
    09:00 +21°C° 0.4 mm 1 mps 691 mmHg 96%
    10:00 +21°C° 0.4 mm 1 mps 692 mmHg 95%
    11:00 +22°C° 0.2 mm 1 mps 691 mmHg 93%
    12:00 +22°C° 0.2 mm 1 mps 691 mmHg 92%
    13:00 +22°C° 0.2 mm 1 mps 690 mmHg 90%
    14:00 +23°C° 0.1 mm 1 mps 690 mmHg 86%
    15:00 +24°C° 0.1 mm 1 mps 690 mmHg 82%
    16:00 +25°C° 0.1 mm 1 mps 689 mmHg 78%
    17:00 +24°C° 0.2 mm 1 mps 689 mmHg 83%
    18:00 +21°C° 0.2 mm 0 mps 689 mmHg 87%
    19:00 +19°C° 0.2 mm 0 mps 689 mmHg 92%
    20:00 +19°C° 0.1 mm 0 mps 690 mmHg 92%
    21:00 +19°C° 0.1 mm 0 mps 690 mmHg 92%
    22:00 +19°C° 0.1 mm 0 mps 691 mmHg 93%
    23:00 +19°C° 0.2 mm 0 mps 691 mmHg 93%

    Day after tomorrow, 24 January, Wednesday

    Time Temperature Precipitation Wind Pressure Humidity
    00:00 +19°C° 0.2 mm 0 mps 690 mmHg 94%
    01:00 +19°C° 0.2 mm 0 mps 690 mmHg 94%
    02:00 +19°C° 0.1 mm 0 mps 690 mmHg 95%
    03:00 +20°C° 0.1 mm 1 mps 689 mmHg 96%
    04:00 +20°C° 0.1 mm 1 mps 689 mmHg 97%
    05:00 +21°C° 0.1 mm 1 mps 690 mmHg 97%
    06:00 +19°C° 0.1 mm 0 mps 690 mmHg 97%
    07:00 +19°C° 0.1 mm 0 mps 690 mmHg 97%
    08:00 +22°C° 0.1 mm 1 mps 691 mmHg 90%
    09:00 +24°C° 0.1 mm 1 mps 692 mmHg 83%
    10:00 +25°C° 0.1 mm 1 mps 692 mmHg 77%
    11:00 +25°C° 0.6 mm 1 mps 692 mmHg 79%
    12:00 +25°C° 0.6 mm 1 mps 691 mmHg 82%
    13:00 +25°C° 0.6 mm 2 mps 691 mmHg 84%
    14:00 +25°C° 0.7 mm 2 mps 690 mmHg 84%
    15:00 +25°C° 0.7 mm 2 mps 689 mmHg 84%
    16:00 +25°C° 0.7 mm 2 mps 689 mmHg 84%
    17:00 +24°C° 0.3 mm 1 mps 689 mmHg 87%
    18:00 +22°C° 0.3 mm 1 mps 689 mmHg 90%
    19:00 +19°C° 0.3 mm 0 mps 689 mmHg 93%
    20:00 +21°C° 0.1 mm 1 mps 690 mmHg 92%
    21:00 +20°C° 0.1 mm 1 mps 690 mmHg 91%
    22:00 +20°C° 0.1 mm 1 mps 690 mmHg 90%
    23:00 +20°C° 0 mm 1 mps 690 mmHg 91%

    25 January, Thursday

    Time Temperature Precipitation Wind Pressure Humidity
    00:00 +20°C° 0 mm 1 mps 690 mmHg 92%
    01:00 +20°C° 0 mm 1 mps 689 mmHg 93%
    02:00 +20°C° 0 mm 1 mps 689 mmHg 94%
    03:00 +20°C° 0 mm 1 mps 689 mmHg 95%
    04:00 +20°C° 0 mm 1 mps 689 mmHg 96%
    05:00 +18°C° 0 mm 0 mps 689 mmHg 95%
    06:00 +19°C° 0 mm 0 mps 690 mmHg 94%
    07:00 +19°C° 0 mm 0 mps 690 mmHg 93%
    08:00 +24°C° 0 mm 1 mps 691 mmHg 83%
    09:00 +26°C° 0 mm 1 mps 691 mmHg 72%
    10:00 +29°C° 0 mm 1 mps 692 mmHg 61%
    11:00 +30°C° 0 mm 1 mps 691 mmHg 57%
    12:00 +31°C° 0 mm 1 mps 691 mmHg 52%
    13:00 +32°C° 0 mm 1 mps 690 mmHg 48%
    14:00 +31°C° 0 mm 1 mps 689 mmHg 53%
    15:00 +30°C° 0 mm 1 mps 689 mmHg 57%
    16:00 +30°C° 0 mm 1 mps 688 mmHg 62%
    17:00 +27°C° 0.7 mm 1 mps 688 mmHg 71%
    18:00 +25°C° 0.7 mm 1 mps 689 mmHg 81%
    19:00 +23°C° 0.7 mm 1 mps 689 mmHg 90%
    20:00 +22°C° 0.5 mm 1 mps 689 mmHg 92%
    21:00 +22°C° 0.5 mm 1 mps 690 mmHg 94%
    22:00 +21°C° 0.5 mm 1 mps 690 mmHg 96%
    23:00 +21°C° 0.1 mm 1 mps 690 mmHg 97%

    26 January, Friday

    Time Temperature Precipitation Wind Pressure Humidity
    00:00 +21°C° 0.1 mm 1 mps 690 mmHg 97%
    01:00 +21°C° 0.1 mm 1 mps 690 mmHg 98%
    02:00 +21°C° 0.2 mm 1 mps 689 mmHg 98%
    03:00 +21°C° 0.2 mm 1 mps 689 mmHg 98%
    04:00 +21°C° 0.2 mm 1 mps 689 mmHg 98%
    05:00 +21°C° 0 mm 1 mps 689 mmHg 98%
    06:00 +21°C° 0 mm 1 mps 690 mmHg 97%
    07:00 +22°C° 0 mm 1 mps 690 mmHg 97%
    08:00 +24°C° 0.1 mm 1 mps 691 mmHg 87%
    09:00 +26°C° 0.1 mm 1 mps 691 mmHg 77%
    10:00 +28°C° 0.1 mm 1 mps 691 mmHg 67%
    11:00 +29°C° 0.4 mm 1 mps 691 mmHg 62%
    12:00 +31°C° 0.4 mm 1 mps 690 mmHg 57%
    13:00 +32°C° 0.4 mm 1 mps 689 mmHg 52%
    14:00 +31°C° 0.1 mm 1 mps 689 mmHg 54%
    15:00 +31°C° 0.1 mm 1 mps 688 mmHg 56%
    16:00 +30°C° 0.1 mm 1 mps 688 mmHg 57%
    17:00 +28°C° 0.2 mm 1 mps 688 mmHg 64%
    18:00 +27°C° 0.2 mm 1 mps 688 mmHg 70%
    19:00 +25°C° 0.2 mm 1 mps 688 mmHg 77%
    20:00 +24°C° 0.3 mm 1 mps 689 mmHg 80%
    21:00 +23°C° 0.3 mm 1 mps 689 mmHg 84%
    22:00 +22°C° 0.3 mm 1 mps 690 mmHg 87%
    23:00 +22°C° 0.4 mm 1 mps 689 mmHg 90%

    27 January, Saturday

    Time Temperature Precipitation Wind Pressure Humidity
    00:00 +21°C° 0.4 mm 1 mps 689 mmHg 93%
    01:00 +21°C° 0.4 mm 1 mps 689 mmHg 96%
    02:00 +21°C° 0.4 mm 1 mps 689 mmHg 97%
    03:00 +19°C° 0.4 mm 0 mps 689 mmHg 97%
    04:00 +19°C° 0.4 mm 0 mps 689 mmHg 98%
    05:00 +19°C° 0.1 mm 0 mps 689 mmHg 97%
    06:00 +21°C° 0.1 mm 1 mps 690 mmHg 96%
    07:00 +21°C° 0.1 mm 1 mps 690 mmHg 95%
    08:00 +24°C° 0.1 mm 1 mps 690 mmHg 85%
    09:00 +26°C° 0.1 mm 1 mps 691 mmHg 75%
    10:00 +28°C° 0.1 mm 1 mps 691 mmHg 64%
    11:00 +29°C° 0.3 mm 1 mps 691 mmHg 59%
    12:00 +31°C° 0.3 mm 1 mps 690 mmHg 55%
    13:00 +32°C° 0.3 mm 1 mps 689 mmHg 50%
    14:00 +31°C° 0 mm 2 mps 689 mmHg 51%
    15:00 +31°C° 0 mm 2 mps 688 mmHg 53%
    16:00 +31°C° 0 mm 2 mps 688 mmHg 54%
    17:00 +29°C° 0.1 mm 2 mps 688 mmHg 64%
    18:00 +27°C° 0.1 mm 2 mps 688 mmHg 73%
    19:00 +24°C° 0.1 mm 2 mps 688 mmHg 83%
    20:00 +24°C° 0.5 mm 1 mps 689 mmHg 87%
    21:00 +23°C° 0.5 mm 1 mps 689 mmHg 91%
    22:00 +22°C° 0.5 mm 1 mps 690 mmHg 94%
    23:00 +22°C° 0.5 mm 1 mps 689 mmHg 95%
    Show more